Time,TemperatureF,DewpointF,PressureIn,WindDirection,WindDirectionDegrees,WindSpeedMPH,WindSpeedGustMPH,Humidity,HourlyPrecipIn,Conditions,Clouds,dailyrainin,SolarRadiationWatts/m^2,SoftwareType,DateUTC
2013-07-07 00:01:00,68.0,57.0,-100.00,SSW,204,6.0,11.0,67,0.00,,,0.00,0.000000,,2013-07-07 04:01:00,
2013-07-07 00:02:00,68.0,57.0,-100.00,SSW,204,6.0,11.0,67,0.00,,,0.00,0.000000,,2013-07-07 04:02:00,
2013-07-07 00:21:00,64.0,57.0,-100.00,SSW,198,6.0,8.0,79,0.00,,,0.00,0.000000,,2013-07-07 04:21:00,
2013-07-07 00:31:00,64.0,57.0,-100.00,SSW,198,6.0,8.0,79,0.00,,,0.00,0.000000,,2013-07-07 04:31:00,
2013-07-07 00:41:00,64.0,57.0,-100.00,SSW,198,6.0,8.0,79,0.00,,,0.00,0.000000,,2013-07-07 04:41:00,
2013-07-07 00:51:00,64.0,57.0,-100.00,SSW,198,6.0,8.0,79,0.00,,,0.00,0.000000,,2013-07-07 04:51:00,
2013-07-07 01:01:00,64.0,57.0,-100.00,SSW,198,6.0,8.0,79,0.00,,,0.00,0.000000,,2013-07-07 05:01:00,
2013-07-07 01:21:00,64.0,58.0,-100.00,SSW,212,6.0,11.0,82,0.00,,,0.00,0.000000,,2013-07-07 05:21:00,
2013-07-07 01:31:00,64.0,58.0,-100.00,SSW,212,6.0,11.0,82,0.00,,,0.00,0.000000,,2013-07-07 05:31:00,
2013-07-07 01:41:00,64.0,58.0,-100.00,SSW,212,6.0,11.0,82,0.00,,,0.00,0.000000,,2013-07-07 05:41:00,
2013-07-07 01:51:00,64.0,58.0,-100.00,SSW,212,6.0,11.0,82,0.00,,,0.00,0.000000,,2013-07-07 05:51:00,
2013-07-07 02:01:00,64.0,58.0,-100.00,SSW,212,6.0,11.0,82,0.00,,,0.00,0.000000,,2013-07-07 06:01:00,
2013-07-07 02:22:00,62.0,59.0,-100.00,SSW,199,5.0,8.0,91,0.00,,,0.00,0.000000,,2013-07-07 06:22:00,
2013-07-07 02:32:00,62.0,59.0,-100.00,SSW,199,5.0,8.0,91,0.00,,,0.00,0.000000,,2013-07-07 06:32:00,
2013-07-07 02:43:00,62.0,59.0,-100.00,SSW,199,5.0,8.0,91,0.00,,,0.00,0.000000,,2013-07-07 06:43:00,
2013-07-07 02:52:00,62.0,59.0,-100.00,SSW,199,5.0,8.0,91,0.00,,,0.00,0.000000,,2013-07-07 06:52:00,
2013-07-07 03:02:00,62.0,59.0,-100.00,SSW,199,5.0,8.0,91,0.00,,,0.00,0.000000,,2013-07-07 07:02:00,
2013-07-07 03:22:00,61.0,58.0,-100.00,SSW,205,4.0,7.0,91,0.00,,,0.00,0.000000,,2013-07-07 07:22:00,
2013-07-07 03:33:00,61.0,58.0,-100.00,SSW,205,4.0,7.0,91,0.00,,,0.00,0.000000,,2013-07-07 07:33:00,
2013-07-07 03:44:00,61.0,58.0,-100.00,SSW,205,4.0,7.0,91,0.00,,,0.00,0.000000,,2013-07-07 07:44:00,
2013-07-07 03:53:00,61.0,58.0,-100.00,SSW,205,4.0,7.0,91,0.00,,,0.00,0.000000,,2013-07-07 07:53:00,
2013-07-07 04:02:00,61.0,58.0,-100.00,SSW,205,4.0,7.0,91,0.00,,,0.00,0.000000,,2013-07-07 08:02:00,
2013-07-07 04:22:00,64.0,61.0,-100.00,SW,227,7.0,10.0,90,0.00,,,0.00,0.000000,,2013-07-07 08:22:00,
2013-07-07 04:34:00,64.0,61.0,-100.00,SW,227,7.0,10.0,90,0.00,,,0.00,0.000000,,2013-07-07 08:34:00,
2013-07-07 04:44:00,64.0,61.0,-100.00,SW,227,7.0,10.0,90,0.00,,,0.00,0.000000,,2013-07-07 08:44:00,
2013-07-07 04:53:00,64.0,61.0,-100.00,SW,227,7.0,10.0,90,0.00,,,0.00,0.000000,,2013-07-07 08:53:00,
2013-07-07 05:02:00,64.0,61.0,-100.00,SW,227,7.0,10.0,90,0.00,,,0.00,0.000000,,2013-07-07 09:02:00,
2013-07-07 05:22:00,64.0,61.0,-100.00,SW,217,6.0,12.0,89,0.00,,,0.00,0.000000,,2013-07-07 09:22:00,
2013-07-07 05:34:00,64.0,61.0,-100.00,SW,217,6.0,12.0,89,0.00,,,0.00,0.000000,,2013-07-07 09:34:00,
2013-07-07 05:43:00,64.0,61.0,-100.00,SW,217,6.0,12.0,89,0.00,,,0.00,0.000000,,2013-07-07 09:43:00,
2013-07-07 05:53:00,64.0,61.0,-100.00,SW,217,6.0,12.0,89,0.00,,,0.00,0.000000,,2013-07-07 09:53:00,
2013-07-07 06:03:00,64.0,61.0,-100.00,SW,217,6.0,12.0,89,0.00,,,0.00,0.000000,,2013-07-07 10:03:00,
2013-07-07 06:23:00,61.0,59.0,-100.00,South,183,3.0,8.0,93,0.00,,,0.00,2.000000,,2013-07-07 10:23:00,
2013-07-07 06:32:00,61.0,59.0,-100.00,South,183,3.0,8.0,93,0.00,,,0.00,2.000000,,2013-07-07 10:32:00,
2013-07-07 06:43:00,61.0,59.0,-100.00,South,183,3.0,8.0,93,0.00,,,0.00,2.000000,,2013-07-07 10:43:00,
2013-07-07 06:52:00,61.0,59.0,-100.00,South,183,3.0,8.0,93,0.00,,,0.00,2.000000,,2013-07-07 10:52:00,
2013-07-07 07:02:00,61.0,59.0,-100.00,South,183,3.0,8.0,93,0.00,,,0.00,2.000000,,2013-07-07 11:02:00,
2013-07-07 07:23:00,60.0,59.0,-100.00,ENE,59,1.0,5.0,97,0.00,,,0.00,33.000000,,2013-07-07 11:23:00,
2013-07-07 07:34:00,60.0,59.0,-100.00,ENE,59,1.0,5.0,97,0.00,,,0.00,33.000000,,2013-07-07 11:34:00,
2013-07-07 07:43:00,60.0,59.0,-100.00,ENE,59,1.0,5.0,97,0.00,,,0.00,33.000000,,2013-07-07 11:43:00,
2013-07-07 07:53:00,60.0,59.0,-100.00,ENE,59,1.0,5.0,97,0.00,,,0.00,33.000000,,2013-07-07 11:53:00,
2013-07-07 08:02:00,60.0,59.0,-100.00,ENE,59,1.0,5.0,97,0.00,,,0.00,33.000000,,2013-07-07 12:02:00,
2013-07-07 08:22:00,67.0,63.0,-100.00,WSW,249,4.0,6.0,87,0.00,,,0.00,157.000000,,2013-07-07 12:22:00,
2013-07-07 08:34:00,67.0,63.0,-100.00,WSW,249,4.0,6.0,87,0.00,,,0.00,157.000000,,2013-07-07 12:34:00,
2013-07-07 08:43:00,67.0,63.0,-100.00,WSW,249,4.0,6.0,87,0.00,,,0.00,157.000000,,2013-07-07 12:43:00,
2013-07-07 08:52:00,67.0,63.0,-100.00,WSW,249,4.0,6.0,87,0.00,,,0.00,157.000000,,2013-07-07 12:52:00,
2013-07-07 09:02:00,67.0,63.0,-100.00,WSW,249,4.0,6.0,87,0.00,,,0.00,157.000000,,2013-07-07 13:02:00,
2013-07-07 09:22:00,71.0,65.0,-100.00,WSW,250,7.0,12.0,81,0.00,,,0.00,228.000000,,2013-07-07 13:22:00,
2013-07-07 09:34:00,71.0,65.0,-100.00,WSW,250,7.0,12.0,81,0.00,,,0.00,228.000000,,2013-07-07 13:34:00,
2013-07-07 09:43:00,71.0,65.0,-100.00,WSW,250,7.0,12.0,81,0.00,,,0.00,228.000000,,2013-07-07 13:43:00,
2013-07-07 09:52:00,71.0,65.0,-100.00,WSW,250,7.0,12.0,81,0.00,,,0.00,228.000000,,2013-07-07 13:52:00,
2013-07-07 10:02:00,71.0,65.0,-100.00,WSW,250,7.0,12.0,81,0.00,,,0.00,228.000000,,2013-07-07 14:02:00,
2013-07-07 10:22:00,76.0,66.0,-100.00,SW,236,5.0,10.0,72,0.00,,,0.00,438.000000,,2013-07-07 14:22:00,
2013-07-07 10:34:00,76.0,66.0,-100.00,SW,236,5.0,10.0,72,0.00,,,0.00,438.000000,,2013-07-07 14:34:00,
2013-07-07 10:43:00,76.0,66.0,-100.00,SW,236,5.0,10.0,72,0.00,,,0.00,438.000000,,2013-07-07 14:43:00,
2013-07-07 10:53:00,76.0,66.0,-100.00,SW,236,5.0,10.0,72,0.00,,,0.00,438.000000,,2013-07-07 14:53:00,
2013-07-07 11:02:00,76.0,66.0,-100.00,SW,236,5.0,10.0,72,0.00,,,0.00,438.000000,,2013-07-07 15:02:00,
2013-07-07 11:34:00,80.0,67.0,-100.00,West,265,5.0,11.0,65,0.00,,,0.00,587.000000,,2013-07-07 15:34:00,
2013-07-07 11:43:00,80.0,67.0,-100.00,West,265,5.0,11.0,65,0.00,,,0.00,587.000000,,2013-07-07 15:43:00,
2013-07-07 11:52:00,80.0,67.0,-100.00,West,265,5.0,11.0,65,0.00,,,0.00,587.000000,,2013-07-07 15:52:00,
2013-07-07 12:01:00,80.0,67.0,-100.00,West,265,5.0,11.0,65,0.00,,,0.00,587.000000,,2013-07-07 16:01:00,
2013-07-07 12:23:00,80.0,64.0,-100.00,WNW,290,4.0,10.0,59,0.00,,,0.00,430.000000,,2013-07-07 16:23:00,
2013-07-07 12:34:00,80.0,64.0,-100.00,WNW,290,4.0,10.0,59,0.00,,,0.00,430.000000,,2013-07-07 16:34:00,
2013-07-07 12:43:00,80.0,64.0,-100.00,WNW,290,4.0,10.0,59,0.00,,,0.00,430.000000,,2013-07-07 16:43:00,
2013-07-07 12:53:00,80.0,64.0,-100.00,WNW,290,4.0,10.0,59,0.00,,,0.00,430.000000,,2013-07-07 16:53:00,
2013-07-07 13:02:00,80.0,64.0,-100.00,WNW,290,4.0,10.0,59,0.00,,,0.00,430.000000,,2013-07-07 17:02:00,
2013-07-07 13:22:00,81.0,64.0,-100.00,NW,326,4.0,10.0,56,0.00,,,0.00,396.000000,,2013-07-07 17:22:00,
2013-07-07 13:34:00,81.0,64.0,-100.00,NW,326,4.0,10.0,56,0.00,,,0.00,396.000000,,2013-07-07 17:34:00,
2013-07-07 13:43:00,81.0,64.0,-100.00,NW,326,4.0,10.0,56,0.00,,,0.00,396.000000,,2013-07-07 17:43:00,
2013-07-07 13:53:00,81.0,64.0,-100.00,NW,326,4.0,10.0,56,0.00,,,0.00,396.000000,,2013-07-07 17:53:00,
2013-07-07 14:02:00,81.0,64.0,-100.00,NW,326,4.0,10.0,56,0.00,,,0.00,396.000000,,2013-07-07 18:02:00,
2013-07-07 14:33:00,76.0,64.0,-100.00,North,7,8.0,12.0,67,0.00,,,0.00,221.000000,,2013-07-07 18:33:00,
2013-07-07 14:43:00,76.0,64.0,-100.00,North,7,8.0,12.0,67,0.00,,,0.00,221.000000,,2013-07-07 18:43:00,
2013-07-07 14:53:00,76.0,64.0,-100.00,North,7,8.0,12.0,67,0.00,,,0.00,221.000000,,2013-07-07 18:53:00,
2013-07-07 15:01:00,76.0,64.0,-100.00,North,7,8.0,12.0,67,0.00,,,0.00,221.000000,,2013-07-07 19:01:00,
2013-07-07 15:22:00,81.0,69.0,-100.00,ENE,69,5.0,13.0,68,0.00,,,0.00,488.000000,,2013-07-07 19:22:00,
2013-07-07 15:34:00,81.0,69.0,-100.00,ENE,69,5.0,13.0,68,0.00,,,0.00,488.000000,,2013-07-07 19:34:00,
2013-07-07 15:43:00,81.0,69.0,-100.00,ENE,69,5.0,13.0,68,0.00,,,0.00,488.000000,,2013-07-07 19:43:00,
2013-07-07 15:54:00,81.0,69.0,-100.00,ENE,69,5.0,13.0,68,0.00,,,0.00,488.000000,,2013-07-07 19:54:00,
2013-07-07 16:02:00,81.0,69.0,-100.00,ENE,69,5.0,13.0,68,0.00,,,0.00,488.000000,,2013-07-07 20:02:00,
2013-07-07 16:22:00,81.0,64.0,-100.00,SSE,159,3.0,9.0,56,0.00,,,0.00,418.000000,,2013-07-07 20:22:00,
2013-07-07 16:34:00,81.0,64.0,-100.00,SSE,159,3.0,9.0,56,0.00,,,0.00,418.000000,,2013-07-07 20:34:00,
2013-07-07 16:42:00,81.0,64.0,-100.00,SSE,159,3.0,9.0,56,0.00,,,0.00,418.000000,,2013-07-07 20:42:00,
2013-07-07 16:53:00,81.0,64.0,-100.00,SSE,159,3.0,9.0,56,0.00,,,0.00,418.000000,,2013-07-07 20:53:00,
2013-07-07 17:02:00,81.0,64.0,-100.00,SSE,159,3.0,9.0,56,0.00,,,0.00,418.000000,,2013-07-07 21:02:00,
2013-07-07 17:22:00,72.0,65.0,-100.00,SSW,193,5.0,9.0,80,0.18,,,0.18,58.000000,,2013-07-07 21:22:00,
2013-07-07 17:34:00,72.0,65.0,-100.00,SSW,193,5.0,9.0,80,0.18,,,0.18,58.000000,,2013-07-07 21:34:00,
2013-07-07 17:44:00,72.0,65.0,-100.00,SSW,193,5.0,9.0,80,0.18,,,0.18,58.000000,,2013-07-07 21:44:00,
2013-07-07 17:53:00,72.0,65.0,-100.00,SSW,193,5.0,9.0,80,0.18,,,0.18,58.000000,,2013-07-07 21:53:00,
2013-07-07 18:01:00,72.0,65.0,-100.00,SSW,193,5.0,9.0,80,0.18,,,0.18,58.000000,,2013-07-07 22:01:00,
2013-07-07 18:22:00,73.0,71.0,-100.00,ESE,120,2.0,21.0,92,0.87,,,1.05,108.000000,,2013-07-07 22:22:00,
2013-07-07 18:34:00,73.0,71.0,-100.00,ESE,120,2.0,21.0,92,0.87,,,1.05,108.000000,,2013-07-07 22:34:00,
2013-07-07 18:44:00,73.0,71.0,-100.00,ESE,120,2.0,21.0,92,0.87,,,1.05,108.000000,,2013-07-07 22:44:00,
2013-07-07 18:54:00,73.0,71.0,-100.00,ESE,120,2.0,21.0,92,0.87,,,1.05,108.000000,,2013-07-07 22:54:00,
2013-07-07 19:02:00,73.0,71.0,-100.00,ESE,120,2.0,21.0,92,0.87,,,1.05,108.000000,,2013-07-07 23:02:00,
2013-07-07 19:22:00,75.0,71.0,-100.00,ESE,118,2.0,7.0,86,0.00,,,1.05,233.000000,,2013-07-07 23:22:00,
2013-07-07 19:33:00,75.0,71.0,-100.00,ESE,118,2.0,7.0,86,0.00,,,1.05,233.000000,,2013-07-07 23:33:00,
2013-07-07 19:43:00,75.0,71.0,-100.00,ESE,118,2.0,7.0,86,0.00,,,1.05,233.000000,,2013-07-07 23:43:00,
2013-07-07 19:53:00,75.0,71.0,-100.00,ESE,118,2.0,7.0,86,0.00,,,1.05,233.000000,,2013-07-07 23:53:00,
2013-07-07 20:02:00,75.0,71.0,-100.00,ESE,118,2.0,7.0,86,0.00,,,1.05,233.000000,,2013-07-08 00:02:00,
2013-07-07 20:22:00,75.0,71.0,-100.00,NE,50,3.0,5.0,88,0.00,,,1.05,145.000000,,2013-07-08 00:22:00,
2013-07-07 20:33:00,75.0,71.0,-100.00,NE,50,3.0,5.0,88,0.00,,,1.05,145.000000,,2013-07-08 00:33:00,
2013-07-07 20:43:00,75.0,71.0,-100.00,NE,50,3.0,5.0,88,0.00,,,1.05,145.000000,,2013-07-08 00:43:00,
2013-07-07 20:53:00,75.0,71.0,-100.00,NE,50,3.0,5.0,88,0.00,,,1.05,145.000000,,2013-07-08 00:53:00,
2013-07-07 21:01:00,75.0,71.0,-100.00,NE,50,3.0,5.0,88,0.00,,,1.05,145.000000,,2013-07-08 01:01:00,
2013-07-07 21:22:00,70.0,63.0,-100.00,NNE,32,4.0,8.0,78,0.00,,,1.05,86.000000,,2013-07-08 01:22:00,
2013-07-07 21:32:00,70.0,63.0,-100.00,NNE,32,4.0,8.0,78,0.00,,,1.05,86.000000,,2013-07-08 01:32:00,
2013-07-07 21:43:00,70.0,63.0,-100.00,NNE,32,4.0,8.0,78,0.00,,,1.05,86.000000,,2013-07-08 01:43:00,
2013-07-07 21:53:00,70.0,63.0,-100.00,NNE,32,4.0,8.0,78,0.00,,,1.05,86.000000,,2013-07-08 01:53:00,
2013-07-07 22:02:00,70.0,63.0,-100.00,NNE,32,4.0,8.0,78,0.00,,,1.05,86.000000,,2013-07-08 02:02:00,
2013-07-07 22:43:00,66.0,64.0,-100.00,NNW,348,1.0,4.0,93,0.00,,,1.05,5.000000,,2013-07-08 02:43:00,
2013-07-07 22:52:00,66.0,64.0,-100.00,NNW,348,1.0,4.0,93,0.00,,,1.05,5.000000,,2013-07-08 02:52:00,
2013-07-07 23:02:00,66.0,64.0,-100.00,NNW,348,1.0,4.0,93,0.00,,,1.05,5.000000,,2013-07-08 03:02:00,
2013-07-07 23:23:00,65.0,64.0,-100.00,West,272,0.0,4.0,97,0.00,,,1.05,0.000000,,2013-07-08 03:23:00,
2013-07-07 23:34:00,65.0,64.0,-100.00,West,272,0.0,4.0,97,0.00,,,1.05,0.000000,,2013-07-08 03:34:00,
2013-07-07 23:42:00,65.0,64.0,-100.00,West,272,0.0,4.0,97,0.00,,,1.05,0.000000,,2013-07-08 03:42:00,
2013-07-07 23:52:00,65.0,64.0,-100.00,West,272,0.0,4.0,97,0.00,,,1.05,0.000000,,2013-07-08 03:52:00,